Weather History for Denver, CO

Change the Weather History Date:

Sunday, July 7, 2013

  Actual Average (KDEN) Record (KDEN)
Temperature  
Mean Temperature 75 °F 73 °F  
Max Temperature 86 °F 89 °F 102 °F (1989)
Min Temperature 64 °F 58 °F 43 °F (1952)
Degree Days  
Heating Degree Days 0 0  
Month to date heating degree days 1  
Since 1 June heating degree days 63  
Since 1 July heating degree days 1  
Cooling Degree Days 10 9  
Month to date cooling degree days 56  
Year to date cooling degree days 211  
Since 1 June cooling degree days 189  
Growing Degree Days 25 (Base 50)    
Moisture  
Dew Point 50 °F    
Average Humidity 45    
Maximum Humidity 59    
Minimum Humidity 23    
Precipitation  
Precipitation 0.00 in 0.05 in 1.41 in (1988)
Month to date precipitation 0.39  
Year to date precipitation 7.90  
Snow  
Snow 0.00 in - - ()
Month to date snowfall  
Since 1 June snowfall  
Since 1 July snowfall  
Snow Depth -    
Sea Level Pressure  
Sea Level Pressure 30.10 in    
Wind  
Wind Speed 9 mph (SSW)    
Max Wind Speed 15 mph    
Max Gust Speed 21 mph    
Visibility 12 miles    
Events Rain    
T = Trace of Precipitation, MM = Missing Value Source: NWS Daily Summary

Daily Weather History Graph

Daily Weather History Graph

Search for Another Location

Airport:

Trip Planner

Search our weather history database for the weather conditions in past years. The results will help you decide how hot, cold, wet, or windy it might be!

Date:

Astronomy

Jul. 07, 2013 Rise Set
Actual Time 5:37 AM MDT 8:28 PM MDT
Civil Twilight 5:05 AM MDT 9:00 PM MDT
Nautical Twilight 4:24 AM MDT 9:41 PM MDT
Astronomical Twilight 3:37 AM MDT 10:28 PM MDT
Moon 5:15 AM MDT (7/7) 7:54 PM MDT (7/7)
Length of Visible Light 15h 55m
Length of Day
14h 51m
Waning Crescent, 0% of the Moon is Illuminated
Jul 7
Waning Crescent
Jul 8
New
Jul 15
First Quarter
Jul 22
Full
Jul 29
Last Quarter

Hourly Weather History & Observations

Time (MDT) Temp. Dew Point Humidity Pressure Visibility Wind Dir Wind Speed Gust Speed Precip Events Conditions
12:15 AM 71.6 °F 50.0 °F 46% 30.06 in 10.0 mi SSW 15.0 mph - N/A   Clear
12:35 AM 71.6 °F 50.0 °F 46% 30.06 in 10.0 mi SSW 12.7 mph - N/A   Clear
12:55 AM 71.6 °F 50.0 °F 46% 30.06 in 10.0 mi SSW 12.7 mph - N/A   Clear
1:15 AM 71.6 °F 48.2 °F 43% 30.06 in 10.0 mi SSW 12.7 mph - N/A   Clear
1:35 AM 71.6 °F 48.2 °F 43% 30.06 in 10.0 mi SSW 10.4 mph - N/A   Clear
1:56 AM 69.8 °F 50.0 °F 49% 30.06 in 10.0 mi SSW 11.5 mph - N/A   Clear
2:16 AM 69.8 °F 50.0 °F 49% 30.06 in 10.0 mi SSW 11.5 mph - N/A   Clear
2:36 AM 71.6 °F 50.0 °F 46% 30.07 in 10.0 mi SW 9.2 mph - N/A   Scattered Clouds
2:56 AM 69.8 °F 48.2 °F 46% 30.08 in 10.0 mi NW 10.4 mph - N/A   Scattered Clouds
3:16 AM 68.0 °F 50.0 °F 52% 30.08 in 10.0 mi WSW 6.9 mph - N/A   Clear
3:35 AM 68.0 °F 50.0 °F 52% 30.08 in 10.0 mi SW 4.6 mph - N/A   Clear
3:56 AM 66.2 °F 50.0 °F 56% 30.07 in 10.0 mi WSW 6.9 mph - N/A   Clear
4:16 AM 68.0 °F 50.0 °F 52% 30.06 in 10.0 mi SW 5.8 mph - N/A   Clear
4:36 AM 68.0 °F 50.0 °F 52% 30.06 in 10.0 mi SW 4.6 mph - N/A   Clear
4:56 AM 68.0 °F 50.0 °F 52% 30.08 in 10.0 mi Calm Calm - N/A   Clear
5:16 AM 64.4 °F 50.0 °F 59% 30.08 in 10.0 mi Calm Calm - N/A   Clear
5:36 AM 64.4 °F 50.0 °F 59% 30.08 in 10.0 mi Calm Calm - N/A   Clear
5:56 AM 64.4 °F 50.0 °F 59% 30.08 in 10.0 mi ESE 4.6 mph - N/A   Scattered Clouds
6:16 AM 64.4 °F 50.0 °F 59% 30.09 in 10.0 mi SW 3.5 mph - N/A   Mostly Cloudy
6:36 AM 64.4 °F 50.0 °F 59% 30.10 in 10.0 mi West 6.9 mph - N/A   Scattered Clouds
6:55 AM 66.2 °F 50.0 °F 56% 30.10 in 10.0 mi West 8.1 mph - N/A   Clear
7:47 AM 73.4 °F 50.0 °F 44% 30.12 in 20.0 mi West 5.8 mph - N/A   Scattered Clouds
8:47 AM 77.0 °F 51.8 °F 41% 30.14 in 20.0 mi North 8.1 mph - N/A   Scattered Clouds
11:47 AM 84.2 °F 50.0 °F 30% 30.14 in 20.0 mi Calm Calm - N/A   Mostly Cloudy
12:55 PM 86.0 °F 46.4 °F 25% 30.12 in 20.0 mi East 3.5 mph - N/A   Mostly Cloudy
1:47 PM 86.0 °F 46.4 °F 25% 30.12 in 20.0 mi North 4.6 mph - N/A   Mostly Cloudy
2:47 PM 86.0 °F 46.4 °F 25% 30.11 in 20.0 mi Calm Calm - N/A Rain Light Rain
3:58 PM 86.0 °F 44.6 °F 23% 30.10 in 20.0 mi SE 9.2 mph - N/A   Mostly Cloudy
9:15 PM 75.2 °F 51.8 °F 44% 30.11 in 10.0 mi SSW 5.8 mph - N/A   Clear
9:36 PM 71.6 °F 51.8 °F 50% 30.13 in 10.0 mi ENE 8.1 mph - N/A   Clear
9:55 PM 73.4 °F 51.8 °F 47% 30.14 in 10.0 mi SE 3.5 mph - N/A   Clear
10:14 PM 73.4 °F 51.8 °F 47% 30.14 in 10.0 mi SE 4.6 mph - N/A   Clear
10:35 PM 75.2 °F 51.8 °F 44% 30.14 in 10.0 mi SW 13.8 mph 20.7 mph N/A   Clear
10:55 PM 77.0 °F 50.0 °F 39% 30.12 in 10.0 mi SSW 13.8 mph - N/A   Clear
11:15 PM 77.0 °F 48.2 °F 36% 30.12 in 10.0 mi SSW 12.7 mph 19.6 mph N/A   Mostly Cloudy
11:35 PM 77.0 °F 48.2 °F 36% 30.12 in 10.0 mi SE 12.7 mph - N/A   Overcast
11:55 PM 75.2 °F 50.0 °F 41% 30.15 in 10.0 mi SE 8.1 mph - N/A   Scattered Clouds